Other Surface Observations
Issued by NWS Tucson, AZ

Home | Current Version | Previous Version | Text Only | Print | Product List | Glossary On
Versions: 1 2 3 4 5 6 7 8 9 10 11 12 13 14 15 16 17 18 19 20 21 22 23 24 25 26 27 28 29 30 31 32 33 34 35 36 37 38 39 40 41 42 43 44 45 46 47 48 49 50
000
SXUS55 KTWC 010115
OSOTWC

WEATHER ROUNDUP FOR SOUTHEAST ARIZONA
NATIONAL WEATHER SERVICE TUCSON AZ
615 PM MST FRI OCT 31 2014

AZZ504>506-514-010215-
LOCATION       SKY/WX    TMP DP  RH WIND       PRES   REMARKS
TUCSON         PTCLDY    86  45  23 S10       29.89S
DAVIS-MONTHAN  PTCLDY    84  47  27 S12       29.87F
CHILDRENS PARK N/A       89  44  21 S5                PIMA CO DEQ
ALVERNON/22ND  N/A      N/A N/A N/A N/A               PIMA CO DEQ
CHERRY/GLENN   N/A      N/A N/A N/A N/A               PIMA CO DEQ
TANGERINE      N/A       89 N/A N/A S7                PIMA CO DEQ
CONTL RANCH    N/A       91  46  21 SW7               PIMA CO DEQ
GRANT/1ST      N/A       90  45  21 S6                PIMA CO DEQ
CRAYCROFT/22ND N/A      N/A N/A N/A N/A               PIMA CO DEQ
GOLFLINKS/KOLB N/A       89  45  22 S3                PIMA CO DEQ
AJO/12TH       N/A       89  44  21 S12               PIMA CO DEQ
SAGUARO EAST   N/A      N/A N/A N/A N/A               PIMA CO DEQ
FAIRGROUNDS    N/A       88 N/A N/A N2                PIMA CO DEQ
SAGUARO        N/A       88  44  22 SW3               *SABINO CYN
SAN CARLOS     N/A       80  47  31 SE15G23           *SAN CARLOS
GREEN VALLEY   N/A       86  45  24 S11               PIMA CO DEQ
HORSE CAMP CYN N/A       77  45  32 SE17G28           *ARAVAIPA CYN
RINCON MTNS    N/A       57  42  58 SE4G13            *NR MANNING CAMP
$$

AZZ509>511-010215-
LOCATION       SKY/WX    TMP DP  RH WIND       PRES   REMARKS
SAFFORD        PTCLDY    76  47  35 E10       29.99F
STRAY HORSE    N/A       54  39  56 SE4G10            *
TRAIL CABIN    N/A       62  43  49 SE11G26           *N OF GRANVILLE
BLACK HILLS    N/A       76  46  34 SE15G25           *N OF FT THOMAS
DRY LAKE       N/A       56  41  57 SE9G16            *NATANES MTNS
NOON CREEK     N/A       64  48  57 SW6               *PINALENO MTNS
COLUMBINE      N/A       51  39  64 S7G16             *PINALENO MTNS
GUTHRIE        N/A       61  44  54 E8G23             *SW OF GUTHRIE
$$

AZZ502-503-513-010215-
LOCATION       SKY/WX    TMP DP  RH WIND       PRES   REMARKS
NOGALES        PTCLDY    73  48  41 SE9       29.99S
SELLS          N/A       85  46  26 S10G17            *
SASABE         N/A       81  45  28 S9G18             *ALTAR VLY
HOPKINS        N/A       63  45  52 SE5G12            *SANTA RITA MTNS
CARR CYN       N/A       67  48  51 S2                *W OF HEREFORD
$$

AZZ507-508-512-010215-
LOCATION       SKY/WX    TMP DP  RH WIND       PRES   REMARKS
SIERRA VISTA   PTCLDY    75  45  33 S9        30.04F
DOUGLAS        MOCLDY    76  45  33 E12       30.02F
EMPIRE MTNS    N/A       70  46  42 SW7G12            *LAS CIENEGAS NCA
MULESHOE RANCH N/A       73  44  36 E9G18             *PRESERVE
HEADQUARTERS   N/A       67  45  45 E10G21            *CHIRICAHUA MTNS
$$

.............................NOTES.............................
THIS IS AN AUTOMATED COLLECTIVE WITH MINIMAL QUALITY CONTROL.
PIMA CO DEQ SITES HAVE NONSTANDARD WIND SENSOR HEIGHTS.
PIMA CO DEQ SITES DO NOT REPORT WIND GUSTS.
* INDICATES WIND SENSORS LOCATED AT 20 FEET INSTEAD OF 33 FEET.
..............................KEY..............................
SKY/WX - SKY CONDITION/WEATHER
TMP    - TEMPERATURE IN FAHRENHEIT
DP     - DEWPOINT IN FAHRENHEIT
RH     - RELATIVE HUMIDITY IN PERCENT
WIND   - DIRECTION AND SPEED IN MILES PER HOUR (MPH)
VRB    - VARIABLE WIND DIRECTION
PRES   - MEAN SEA LEVEL PRESSURE IN INCHES OF MERCURY
         F - FALLING PRESSURE   R - RISING PRESSURE
         S - STEADY PRESSURE
VSB    - VISIBILITY IN MILES
HX     - HEAT INDEX IN FAHRENHEIT
WCI    - WIND CHILL INDEX IN FAHRENHEIT
N/A    - NOT AVAILABLE
AFB    - AIR FORCE BASE
         DAVIS-MONTHAN IS DAVIS-MONTHAN AIR FORCE BASE
CYN    - CANYON
MTNS   - MOUNTAINS
NCA    - NATIONAL CONSERVATION AREA
NR     - NEAR
VLY    - VALLEY
CONTL  - CONTINENTAL
PIMA CO DEQ - PIMA COUNTY DEPT OF ENVIRONMENTAL QUALITY



USA.gov is the U.S. government's official web portal to all federal, state and local government web resources and services.